{"data":{"norad_id":67290,"epoch":"2026-05-25T04:33:06.878880Z","epoch_age_seconds":52448,"freshness":"FRESH","line1":"1 67290U 25313AU  26145.18966295  .00009394  00000+0  38543-3 0  9992","line2":"2 67290  97.3939 220.5194 0010839  81.2148 279.0316 15.24397969 22472","mean_motion":15.24397969,"eccentricity":0.0010839,"inclination_deg":97.3939,"raan_deg":220.5194,"arg_perigee_deg":81.2148,"mean_anomaly_deg":279.0316,"bstar":0.00038543,"rev_number":2247,"period_min":94.463521290614,"perigee_km":485.1466268379,"apogee_km":500.04099709208,"semimajor_km":6870.730811965,"source":"CELESTRAK","updated_at":"2026-05-25T13:38:06.855976Z"}}